Погода Каменское

Погода Каменское : погода сейчас, прогноз погоды и архив. Всё, что Вы хотите узнать о погоде Каменское!

Поиск расширенной информации на нашем сайте:

Другие новости

Новости СМИ2

Главная страница сайта

Новости сайта

03.07.2017

Напоминаем, что на нашем специализированном сайте Метеоцентр.Азия вы можете получить высокодетализированные автоматические прогнозы погоды по пунктам России, СНГ и мира в авиационном формате (включающие направление и скорость ветра, видимость, явления погоды, количество и форму облачности, нижнюю и верхнюю границу облачности).


Погода Каменское - сегодня

Время (UTC), дата Ветер
(°,м/с) 
Видим.   Явления Облачность Т
(°С)
Тd
(°С)
f(%) Тe
(°С)
Pmin
(гПа)
dP
(гПа)
Po
(мм)
O2
(г/м3)
Тmin Tmax R s Состояние
почвы
03 18.11.17 090 (В) 3{10}  20000 м    10/10 1000 м 
[Sc]
-2.6 -4.5 87 -5  1000.1  -1.6  746  304           
06 18.11.17 160 (Ю) 20000 м    10/10 600 м 
[Sc]
-2.3 -3.6 91 -2  999.9  -0.2  746  304           
09 18.11.17 260 (З) 9-12{13}  2000 м  слаб. ливневой снег  10/10 300 м кучево-дожд. 
[Cb cap]
-0.8 -1.8 93 -6  1002  2.1  748  302    -0.5     
12 18.11.17 210 (ЮЗ) 2{19}  20000 м  {ливн. осадки}  9/9 600 м 
[Sc]
-2.8 -4.8 86 -4  1004.8  2.7  750  306           
15 18.11.17 260 (З) 6-10{13}  н/о    н/о 
-4.2 -9.6 66 -8  1006.1  1.2  751  308           
18 18.11.17 260 (З) 5{10}  н/о    н/о 
-5.2 -10 69 -9  1007.6  1.5  752  310           
21 18.11.17 260 (З) 10-15{15}  20000 м  позёмок  9/9 1000 м 
[Sc]
-4.4 -7.3 80 -10  1009.8  2.2  753  309  -6    0.5  32  равномерный
сухой снег
100% 
00 19.11.17 280 (З) 7-15{15}  20000 м  позёмок  8/8 1000 м 
[Sc]
-6.7 -12.4 64 -12  1013.4  3.5  756  313  -6.7         
03 19.11.17 250 (З) 4{18}  20000 м    3/3 1000 м 
[Sc]
-9.1 -13.6 70 -13  1017.1  3.6  759  318           
06 19.11.17 290 (З) 20000 м    3/3 1000 м 
[Sc]
-11.3 -15.7 70 -11  1020.4  3.3  761  321           
09 19.11.17 300 (СЗ) 20000 м    6/6 1000 м 
[Sc]
-11.3 -15 74 -13  1021.3  0.9  762  322    -4.4       
12 19.11.17 140 (ЮВ) 20000 м    10/10 1000 м 
[Sc]
-12.5 -15.7 77 -12  1021.5  0.1  762  323           
15 19.11.17 090 (В) н/о    н/о 
-11.4 -16.6 65 -13  1020.3  -1.2  761  321           
18 19.11.17 080 (В) н/о    н/о 
-11.2 -17.3 61 -17  1018.1  -2.1  760  321           
21 19.11.17 060 (СВ) 3{11}  10 км  слаб. снег  10/10 300 м 
[Frnb|Ns]
-10.3 -14.2 73 -13  1013.3  -4.7  756  318  -13.6    0.2  31  равномерный
сухой снег
100% 
00 20.11.17 090 (В) 3{12}  4000 м  снег  10/10 300 м 
[Frnb|Ns]
-8.1 -9.6 89 -11  1010.7  -2.6  754  314           
03 20.11.17 010 (С) 10 км  слаб. снег  10/10 300 м 
[Frnb|Ns]
-2.2 -3.1 94 -3  1006.4  -4  751  305           
06 20.11.17 080 (В) 5{11}  20000 м  позёмок{снег}  10/10 600 м 
[Sc]
+0.9 -2.9 76 -2  1003.3  -3.1  749  301           
09 20.11.17 070 (В) 7-11{13}  20000 м  позёмок  10/10 1000 м 
[Sc]
-2.2 -5.4 79 -7  1000.3  -3  746  304    +2.1     
12 20.11.17 090 (В) 4{11}  20000 м    10/10 1000 м 
[Sc]
-5.7 -8.8 79 -9  998.4  -2  745  307           
15 20.11.17 100 (В) 6{13}  н/о    н/о 
-6.4 -9 82 -11  993.7  -4.7  741  307           
18 20.11.17 100 (В) 3{12}  н/о    н/о 
-7.1 -8.6 89 -10  991.4  -2.2  740  307           
21 20.11.17 270 (З) 4000 м  слаб. ливневой снег  10/10 300 м кучево-дожд. 
[Cb cap]
-6.1 -7.2 92 -10  992.2  0.8  740  306  -7.2    35  равномерный
сухой снег
100% 
00 21.11.17 250 (З) 7-14{17}  20000 м  позёмок{ливн. осадки}  9/9 1000 м 
[Sc]
-3.5 -7.9 72 -8  994  1.9  742  304           
03 21.11.17 260 (З) 6{16}  20000 м  позёмок  4/4 1000 м 
[Sc]
-5.2 -10.6 66 -10  997.7  3.6  744  307           
Время (UTC), дата Ветер
(°,м/с) 
Видим.   Явления Облачность Т
(°С)
Тd
(°С)
f(%) Тe
(°С)
Pmin
(гПа)
dP
(гПа)
Po
(мм)
O2
(г/м3)
Тmin Tmax R s Состояние
почвы

Для получения пояснительной информации подведите курсор к названию столбца.

ПОГОДА Каменское - архив

Всё, что Вы хотите узнать о погоде Каменское - удобно и подробно!

Выберите нужную дату (начиная с 1 января 2015* года) и нажмите кнопку "Найти".
Будут отображены архивные сводки погоды по пункту Каменское, начиная с указанной даты.


Отображать данные в формате CSV (для использования в таблицах Excel)


Внимание! Наш архив погоды предназначен исключительно для личного некоммерческого использования в познавательных целях. Если Вам необходимы официальные справки о состоянии погоды (для производственных, юридических, коммерческих и т.п. целей), обращайтесь в органы Росгидромета.

*Примечание: данная дата относится к архиву по метеостанциям СССР (Россия, СНГ, Балтия).
Архив по метеостанциям Зарубежной Европы и Азии (кроме Китая) хранится 10 дней, по другим регионам земного шара (Китай, Африка, Америка, Австралия, Океания) - 1 день.

Каменское - район местоположения метеостанции


Название, широта, долгота, высота метеостанции:
Каменское 62.43°ш. 166.08°д. 10 м над ур. моря [Российская Федерация]

Дополнительная информация

В oтличие oт бoльшинства пoгoдных сайтoв мы публикуем пoдрoбную метеoинфoрмацию в детальнoм прoфессиoнальнoм фoрмате.

Характеристики температуры и влажнoсти вoздуха измеряются на высoте 2 м в тени вдали oт зданий и деревьев.
Скoрoсть ветра измеряется на высoте 10 м (на урoвне рoста челoвека скoрoсть ветра ниже в 1.5-2 раза). Если метеoстанция нахoдится в гoрoде или в лесу, тo скoрoсть ветра занижена на 2-4 м/с пo сравнению с oткрытым местoм. Скoрoсть ветра над акватoриями крупных рек и oзёр, а также на вершинах хoлмoв на 2-5 м/с выше, чем в oбычных услoвиях.
Атмoсфернoе давление в разных тoчках местнoсти мoжет значительнo oтличаться oт давления на метеoстанции, в зависимoсти oт услoвий рельефа (при пoдъёме на 10 м давление пoнижается примернo на 1 мм рт.ст.).